MOLNIYA 1-80

Last updated on Nov. 15, 2019, 4:21 a.m. UTC

1 21118U 91012A   19318.42546281 -.00000518  00000-0  00000+0 0  9994
2 21118  63.9979  81.5225 6837489 287.6570  12.6778  2.05249307211581
UTC
Height (km)
Latitude
Longitude
Inclination
Orbital Period
UTC large
Height (km)
Speed (km/s)
/
Latitude / Longitude
Inclination (degrees)
Orbital Period (minutes)
Azimuth
Elevation
Range (km)
Doppler Factor
iOS Compass Heading
iOS Angle

Next 30 passes for location: Hong Kong

Rise time Rise Azimuth (degrees) Set time Set Azimuth (degrees) Duration Max altitude (degrees)

No matching passes for this satellites